Weather History for KFIT - September, 2014

Change the Weather History Date:

Friday, September 5, 2014

  Actual Average (KORH) Record (KORH)
Temperature  
Mean Temperature 77 °F 65 °F  
Max Temperature 88 °F 73 °F 88 °F (1953)
Min Temperature 66 °F 57 °F 39 °F (1930)
Degree Days  
Heating Degree Days 0 2  
Month to date heating degree days 10  
Since 1 July heating degree days 49  
Cooling Degree Days 12 2  
Month to date cooling degree days 14  
Year to date cooling degree days 440  
Growing Degree Days 27 (Base 50)    
Moisture  
Dew Point 65 °F    
Average Humidity 64    
Maximum Humidity 84    
Minimum Humidity 48    
Precipitation  
Precipitation 0.00 in 0.11 in 1.65 in (1896)
Month to date precipitation 0.57  
Year to date precipitation 31.93  
Sea Level Pressure  
Sea Level Pressure 30.09 in    
Wind  
Wind Speed 6 mph (SW)    
Max Wind Speed 13 mph    
Max Gust Speed 21 mph    
Visibility 10 miles    
Events      
T = Trace of Precipitation, MM = Missing Value Source: NWS Daily Summary

Daily Weather History Graph

Daily Weather History Graph

Search for Another Location

Airport or City:

Trip Planner

Search our weather history database for the weather conditions in past years. The results will help you decide how hot, cold, wet, or windy it might be!

Date:

Astronomy

Sep. 05, 2014 Rise Set
Actual Time 6:16 AM EDT 7:14 PM EDT
Civil Twilight 5:47 AM EDT 7:43 PM EDT
Nautical Twilight 5:13 AM EDT 8:17 PM EDT
Astronomical Twilight 4:37 AM EDT 8:52 PM EDT
Moon 4:44 PM EDT 2:03 AM EDT
Length of Visible Light 13h 55m
Length of Day
12h 58m
Waxing Gibbous, 83% of the Moon is Illuminated
Sep 5
Waxing Gibbous
Sep 8
Full
Sep 15
Last Quarter
Sep 24
New
Oct 1
First Quarter

Hourly Weather History & Observations

Time (EDT) Temp. Heat Index Dew Point Humidity Pressure Visibility Wind Dir Wind Speed Gust Speed Precip Events Conditions
12:52 AM 73.9 °F - 57.9 °F 57% 30.14 in 10.0 mi Variable 3.5 mph - N/A   Clear
1:52 AM 75.0 °F - 59.0 °F 57% 30.14 in 10.0 mi WSW 4.6 mph - N/A   Clear
2:52 AM 71.1 °F - 60.1 °F 68% 30.15 in 10.0 mi NNW 4.6 mph - N/A   Clear
3:52 AM 70.0 °F - 61.0 °F 73% 30.16 in 10.0 mi NNE 3.5 mph - N/A   Clear
5:52 AM 66.0 °F - 61.0 °F 84% 30.15 in 10.0 mi NNW 3.5 mph - N/A   Clear
6:52 AM 66.9 °F - 61.0 °F 81% 30.16 in 10.0 mi North 5.8 mph - N/A   Clear
8:52 AM 77.0 °F - 64.0 °F 64% 30.17 in 10.0 mi WNW 8.1 mph - N/A   Clear
9:52 AM 80.1 °F 81.7 °F 64.0 °F 58% 30.17 in 10.0 mi Calm Calm - N/A   Clear
10:52 AM 82.9 °F 85.0 °F 66.0 °F 56% 30.14 in 10.0 mi SSW 8.1 mph - N/A   Clear
12:52 PM 87.1 °F 89.9 °F 66.9 °F 51% 30.09 in 10.0 mi South 11.5 mph - N/A   Clear
1:52 PM 88.0 °F 90.3 °F 66.0 °F 48% 30.08 in 10.0 mi SW 11.5 mph 18.4 mph N/A   Partly Cloudy
2:52 PM 88.0 °F 91.4 °F 68.0 °F 51% 30.06 in 10.0 mi SSW 10.4 mph 20.7 mph N/A   Mostly Cloudy
3:52 PM 88.0 °F 91.4 °F 68.0 °F 51% 30.06 in 10.0 mi SSW 10.4 mph - N/A   Scattered Clouds
4:52 PM 87.1 °F 90.6 °F 68.0 °F 53% 30.05 in 10.0 mi WSW 11.5 mph 18.4 mph N/A   Clear
5:52 PM 86.0 °F 89.4 °F 68.0 °F 55% 30.04 in 10.0 mi SW 12.7 mph 17.3 mph N/A   Clear
6:52 PM 82.9 °F 85.8 °F 68.0 °F 60% 30.04 in 10.0 mi SSW 6.9 mph - N/A   Clear
7:52 PM 80.1 °F 82.7 °F 68.0 °F 67% 30.02 in 10.0 mi South 8.1 mph - N/A   Clear
8:52 PM 78.1 °F - 69.1 °F 74% 30.01 in 10.0 mi South 6.9 mph - N/A   Clear
9:52 PM 75.9 °F - 69.1 °F 79% 30.01 in 10.0 mi SW 5.8 mph - N/A   Clear
10:52 PM 75.9 °F - 70.0 °F 82% 29.99 in 10.0 mi WSW 4.6 mph - N/A   Mostly Cloudy
11:52 PM 77.0 °F - 70.0 °F 79% 29.99 in 10.0 mi SW 5.8 mph - N/A   Mostly Cloudy